Weather in Kadzherom

Russia / Komi Republic     64°41′31″N   55°54′23″E
temp.,
°C
wind,
m/s
gust,
m/s
humid.,
%
clouds,
%
prec.,
mm/h
press.,
hPa
HPBL,
m
11 may, tue
tue1100:00+3w118939 0.0 102610
03:00+2sw228736 0.0 102721
06:00+6sw2468100 0.0 1027218
09:00+9sw3655100 0.0 1026492
12:00+12sw5842100 0.0 10251827
15:00+9sw4964100 0.0 10251036
18:00+8wsw3873100 0.0 1025544
21:00+7sw2785100 0.0 1025298
12 may, wed
wed1200:00+6ssw2695100 1.1 1024228
03:00+7sw3997100 2.9 1023360
06:00+10ssw3991100 0.1 1022306
09:00+14wsw4107958 0.2 1020601
12:00+17wnw4969100 0.0 10201068
15:00+15nw1480100 0.1 1021224
18:00+13wnw31291100 0.6 1023705
21:00+11nw279290 0.6 1024234
13 may, thu
thu1300:00+8nnw269342 0.0 1026221
03:00+7n2590100 0.0 1027220
06:00+9ne117565 0.0 1028431
09:00+13sse1158100 0.0 1027685
12:00+17ssw35550 0.0 1025815
15:00+21s38511 0.0 10211338
18:00+21sw374916 0.0 1018214
21:00+17sw312652 0.0 1017241
14 may, fri
fri1400:00+15wsw413625 0.0 1016286
03:00+14wsw4136564 0.0 1016326
06:00+17w48605 0.0 1016408
09:00+21wnw364743 0.0 10161040
12:00+22w474393 0.0 10151604
15:00+23wnw36405 0.0 10142028
18:00+18s1264100 0.1 1014126
21:00+14n1192100 2.7 101419
15 may, sat
sat1500:00+13ene0095100 0.6 101311
03:00+13wnw1198100 2.3 101238
06:00+13wsw1198100 4.5 101260
09:00+16nw128499 4.6 1012499
12:00+14nne2277100 0.3 1013377
15:00+18nnw1367100 0.4 1013913
18:00+15ne2379100 0.5 1013137
21:00+13ne258998 1.6 1012144